COSMOS 2476 (744)

Last updated on Jan. 23, 2021, 7:31 a.m. UTC

1 37867U 11064A   21022.62038487 -.00000001  00000-0  00000-0 0  9990
2 37867  64.5514 139.7391 0019395 233.5575 134.3528  2.13101820 71808
UTC
Height (km)
Latitude
Longitude
Inclination
Orbital Period
UTC large
Height (km)
Speed (km/s)
/
Latitude / Longitude
Inclination (degrees)
Orbital Period (minutes)
Azimuth
Elevation
Range (km)
Doppler Factor
iOS Compass Heading
iOS Angle

Next 30 passes for location: Hong Kong

Rise time Rise Azimuth (degrees) Set time Set Azimuth (degrees) Duration Max altitude (degrees)

No matching passes for this satellites